Location: Joplin, MO
(37.0842°N, 94.5133°W)
Time: 18:28:00
(UTC+02:00)

Tiros 1 despin weight - All Passes

Search period start: 31 March 2023 00:00
Search period end: 10 April 2023 00:00
Orbit: 588 x 634 km, 48.2° (Epoch: 29 March)

Date Brightness Start Highest point End Pass type
(mag) Time Alt. Az. Time Alt. Az. Time Alt. Az.
31 Mar - 01:36:59 10° SSW 01:40:48 30° SE 01:44:38 10° ENE daylight
31 Mar - 03:17:48 10° WSW 03:22:02 49° NNW 03:26:18 10° NE visible
31 Mar - 05:00:52 10° WNW 05:04:11 21° N 05:07:31 10° NE visible
31 Mar - 06:43:15 10° NW 06:46:42 22° NNE 06:50:11 10° ENE visible
31 Mar - 08:24:23 10° NW 08:28:45 59° NNE 08:33:11 10° ESE night (unlit)
31 Mar - 10:06:16 10° W 10:09:54 25° SW 10:13:34 10° S night (unlit)
01 Apr - 01:50:32 10° SW 01:54:50 60° SE 01:59:09 10° ENE daylight
01 Apr - 03:32:29 10° W 03:36:25 32° NNW 03:40:22 10° NE visible
01 Apr - 05:15:39 10° NW 05:18:47 19° N 05:21:58 10° NE visible
01 Apr - 06:57:24 10° NW 07:01:14 28° NNE 07:05:05 10° E visible
01 Apr - 08:38:31 10° WNW 08:42:58 78° SW 08:47:27 10° SE night (unlit)
01 Apr - 10:21:59 10° WSW 10:23:47 12° SW 10:25:36 10° SSW night (unlit)
02 Apr - 00:24:58 10° S 00:27:59 18° SE 00:31:01 10° E daylight
02 Apr - 02:04:36 10° WSW 02:08:58 73° NNW 02:13:21 10° NE daylight
02 Apr - 03:47:20 10° WNW 03:50:54 24° NNW 03:54:28 10° NE visible
02 Apr - 05:30:10 10° NW 05:33:24 20° N 05:36:39 10° NE visible
02 Apr - 07:11:28 10° NW 07:15:39 41° NNE 07:19:52 10° E visible
02 Apr - 08:52:52 10° WNW 08:57:02 40° SW 09:01:14 10° SSE night (unlit)
03 Apr - 00:37:54 10° SSW 00:41:55 36° SE 00:45:56 10° ENE daylight
03 Apr - 02:19:04 10° W 02:23:14 43° NNW 02:27:25 10° NE daylight
03 Apr - 04:02:13 10° NW 04:05:27 20° N 04:08:42 10° NE visible
03 Apr - 05:44:26 10° NW 05:47:58 23° NNE 05:51:31 10° ENE visible
03 Apr - 07:25:32 10° NW 07:29:55 68° NNE 07:34:22 10° ESE night (unlit)
03 Apr - 09:07:40 10° W 09:10:59 21° SW 09:14:18 10° S night (unlit)
03 Apr - 23:14:20 10° SE 23:15:12 10° SE 23:16:04 10° ESE daylight
04 Apr - 00:51:35 10° SW 00:55:57 72° SE 01:00:18 10° ENE daylight
04 Apr - 02:33:47 10° W 02:37:37 29° NNW 02:41:27 10° NE daylight
04 Apr - 04:16:54 10° NW 04:20:02 19° N 04:23:11 10° NE visible
04 Apr - 05:58:31 10° NW 06:02:26 30° NNE 06:06:21 10° E visible
04 Apr - 07:39:41 10° WNW 07:44:04 66° SW 07:48:29 10° SE night (unlit)
04 Apr - 23:25:37 10° S 23:29:01 22° SE 23:32:25 10° E daylight
05 Apr - 01:05:45 10° WSW 01:10:06 63° NNW 01:14:27 10° NE daylight
05 Apr - 02:48:38 10° WNW 02:52:06 22° NNW 02:55:33 10° NE daylight
05 Apr - 04:31:20 10° NW 04:34:37 20° N 04:37:54 10° ENE visible
05 Apr - 06:12:32 10° NW 06:16:47 46° NNE 06:21:03 10° ESE visible
05 Apr - 07:54:05 10° WNW 07:58:04 33° SW 08:02:05 10° SSE night (unlit)
05 Apr - 23:38:47 10° SSW 23:42:57 43° SE 23:47:06 10° ENE daylight
06 Apr - 01:20:16 10° W 01:24:22 38° NNW 01:28:28 10° NE daylight
06 Apr - 03:03:27 10° NW 03:06:38 19° N 03:09:49 10° NE visible
06 Apr - 04:45:31 10° NW 04:49:07 24° NNE 04:52:45 10° ENE visible
06 Apr - 06:26:36 10° NW 06:31:00 79° NE 06:35:26 10° ESE visible
06 Apr - 08:09:04 10° W 08:11:57 17° SW 08:14:51 10° S night (unlit)
06 Apr - 22:14:05 10° SSE 22:16:09 13° SE 22:18:13 10° ESE daylight
06 Apr - 23:52:35 10° SW 23:56:59 84° SE 00:01:22 10° ENE daylight
07 Apr - 01:35:01 10° WNW 01:38:44 27° NNW 01:42:29 10° NE daylight
07 Apr - 03:18:03 10° NW 03:21:11 19° N 03:24:20 10° NE visible
07 Apr - 04:59:32 10° NW 05:03:32 33° NNE 05:07:32 10° E visible
07 Apr - 06:40:46 10° WNW 06:45:05 55° SW 06:49:24 10° SE visible
07 Apr - 22:26:17 10° SSW 22:29:58 26° SE 22:33:39 10° ENE daylight
08 Apr - 00:06:49 10° WSW 00:11:08 54° NNW 00:15:26 10° NE daylight
08 Apr - 01:49:50 10° WNW 01:53:12 21° N 01:56:35 10° NE daylight
08 Apr - 03:32:23 10° NW 03:35:44 21° N 03:39:05 10° ENE visible
08 Apr - 05:13:32 10° NW 05:17:49 52° NNE 05:22:08 10° ESE visible
08 Apr - 06:55:15 10° WNW 06:59:01 28° SW 07:02:48 10° SSE visible
08 Apr - 22:39:36 10° SW 22:43:54 52° SE 22:48:10 10° ENE daylight
09 Apr - 00:21:23 10° W 00:25:24 34° NNW 00:29:25 10° NE daylight
09 Apr - 02:04:35 10° NW 02:07:44 19° N 02:10:53 10° NE daylight
09 Apr - 03:46:29 10° NW 03:50:11 26° NNE 03:53:54 10° ENE visible
09 Apr - 05:27:34 10° NW 05:31:58 89° SSW 05:36:23 10° SE visible
09 Apr - 07:10:32 10° W 07:12:50 14° SW 07:15:09 10° SSW night (unlit)
09 Apr - 21:14:17 10° S 21:17:00 16° SE 21:19:43 10° E daylight
09 Apr - 22:53:30 10° WSW 22:57:56 83° NNW 23:02:20 10° NE daylight
